[[{"header":{"parameterUnit":"m.s-1","parameterCategory":1,"la1":30.2991,"la2":30.254,"lo1":-89.0895,"lo2":-89.0444,"dy":0.0017,"dx":0.0017,"nx":28,"ny":28,"refTime":"2025-07-31T21:00:00:Z","depth":0,"parameterNumber":2,"parameterNumberName":"U-component_of_WINDS"},"data":[0,0,0,0,0,0,0,0,0,0,0,0,0,0,0,0,0,0,0,0,0,0,0,0,0,0,0,0,0,0,0,0,0,0,0,0,0,0,0,0,0,0,0,0,0,0,0,0,0,0,0,0,0,0,0,0,0,0,-0.3354,-0.3354,0,-0.3298,-0.3297,-0.3296,-0.3236,-0.3235,-0.3235,-0.3234,-0.3173,-0.3172,-0.3171,0,0,0,0,0,0,0,0,0,0,0,0,0,-0.3408,-0.3408,-0.3354,-0.3354,-0.3353,-0.3298,-0.3297,-0.3296,-0.3236,-0.3235,-0.3234,-0.3233,-0.3173,-0.3172,-0.3171,0,0,0,0,0,0,0,0,0,0,0,0,0,-0.3372,-0.3408,-0.3355,-0.3317,-0.3313,-0.3298,-0.3297,-0.3296,-0.3237,-0.3235,-0.3234,-0.3233,-0.3174,-0.3173,-0.3171,-0.3188,0,0,-0.3167,-0.3167,0,0,0,0,0,0,0,0,-0.3374,-0.337,-0.3323,-0.3319,-0.3315,-0.3273,-0.3294,-0.326,-0.3237,-0.3265,-0.3234,-0.3232,-0.3207,-0.3203,-0.3195,-0.3186,-0.3183,-0.3167,-0.3167,-0.3166,-0.3166,0,0,0,0,0,0,0,-0.3376,-0.3372,-0.3332,-0.3322,-0.3317,-0.3301,-0.3295,-0.3287,-0.3244,-0.3263,-0.3258,-0.3253,-0.3205,-0.3196,-0.3193,-0.3182,-0.3167,-0.3166,-0.3165,-0.3165,-0.3182,-0.3183,0,0,0,0,0,0,-0.3385,-0.3374,-0.3334,-0.333,-0.3342,-0.3302,-0.3294,-0.3287,-0.3244,-0.3236,-0.3254,-0.325,-0.3199,-0.3195,-0.3191,-0.3207,-0.3166,-0.3165,-0.3164,-0.3181,-0.3183,-0.3184,0,0,0,0,0,0,-0.3386,-0.3382,-0.3336,-0.3351,-0.3344,-0.3302,-0.3295,-0.3287,-0.3279,-0.3237,-0.3229,-0.3253,-0.3198,-0.3193,-0.3189,-0.3204,-0.3164,-0.3163,-0.318,-0.3182,-0.3183,-0.3241,0,0,0,0,0,0,-0.3388,-0.3383,-0.339,-0.3352,-0.3343,-0.3337,-0.3296,-0.3287,-0.3277,-0.3272,-0.3234,-0.3227,-0.3197,-0.3192,-0.3188,-0.3202,-0.3162,-0.3178,-0.318,-0.3183,-0.3238,-0.3245,-0.3251,0,0,0,0,0,-0.339,-0.3408,-0.3391,-0.3386,-0.3351,-0.3338,-0.3333,-0.3298,-0.3279,-0.3285,-0.3257,-0.3228,-0.3203,-0.3192,-0.3187,-0.3201,-0.3177,-0.318,-0.3182,-0.3235,-0.3243,-0.3251,0,0,0,0,0,0,-0.3449,-0.3402,-0.3382,-0.3388,-0.3368,-0.3328,-0.3334,-0.3308,-0.3292,-0.3288,-0.3244,-0.3236,-0.3238,-0.3219,-0.3207,-0.3215,-0.3186,-0.3188,-0.3227,-0.3235,-0.3241,-0.3246,-0.3161,0,0,0,0,0,-0.3462,-0.3456,-0.3416,-0.3425,-0.3415,-0.3377,-0.337,-0.3345,-0.3321,-0.3311,-0.3284,-0.3261,-0.3248,-0.324,-0.3226,-0.3234,-0.3225,-0.3241,-0.3248,-0.3254,-0.3256,-0.3258,-0.3264,-0.3193,-0.3193,-0.3193,0,0,-0.349,-0.3464,-0.3463,-0.3436,-0.3417,-0.341,-0.337,-0.3365,-0.3359,-0.331,-0.3306,-0.3285,-0.3256,-0.3259,-0.3259,-0.3243,-0.3273,-0.3257,-0.3262,-0.3261,-0.3261,-0.3268,-0.3274,-0.3195,-0.3194,-0.3194,0,0,-0.3538,-0.3518,-0.3523,-0.3505,-0.3476,-0.345,-0.3452,-0.3415,-0.34,-0.3395,-0.3358,-0.335,-0.3328,-0.3309,-0.3297,-0.3336,-0.3308,-0.3333,-0.3367,-0.3369,-0.3375,-0.338,-0.3393,-0.3399,-0.3335,-0.3335,-0.3335,0,-0.3576,-0.3566,-0.3529,-0.3526,-0.3515,-0.3471,-0.3475,-0.3459,-0.3427,-0.3419,-0.3403,-0.3374,-0.3352,-0.3349,-0.3359,-0.335,-0.3349,-0.3337,-0.3377,-0.3382,-0.3385,-0.3398,-0.3403,-0.3338,-0.3338,-0.3338,-0.3337,0,-0.3614,-0.3607,-0.3614,-0.3586,-0.3575,-0.3576,-0.3538,-0.3531,-0.3507,-0.3483,-0.3477,-0.3449,-0.3427,-0.3425,-0.3401,-0.3418,-0.3409,-0.3385,-0.3356,-0.3396,-0.3407,-0.3411,-0.3343,-0.3342,-0.3341,-0.334,0,0,-0.3697,-0.3647,-0.3651,-0.3637,-0.3602,-0.3595,-0.3593,-0.3573,-0.3568,-0.3547,-0.3544,-0.3526,-0.3504,-0.349,-0.3463,-0.3465,-0.3497,-0.3441,-0.3439,-0.3452,-0.3513,-0.3532,-0.3538,-0.3478,-0.3479,-0.348,-0.3516,0,-0.3739,-0.3734,-0.37,-0.3705,-0.3697,-0.3655,-0.3653,-0.3631,-0.3607,-0.3597,-0.357,-0.3559,-0.353,-0.3521,-0.3521,-0.3494,-0.3509,-0.349,-0.3474,-0.3474,-0.3483,-0.3543,-0.3563,-0.3598,-0.352,-0.352,-0.3521,0,-0.3786,-0.3769,-0.3773,-0.3738,-0.3733,-0.3733,-0.3711,-0.3702,-0.3675,-0.3658,-0.3642,-0.3611,-0.3606,-0.3578,-0.3568,-0.3556,-0.3547,-0.3532,-0.3533,-0.353,-0.35,-0.3542,-0.3609,-0.3614,-0.3527,-0.3527,-0.3526,0,-0.3847,-0.3824,-0.3823,-0.3813,-0.3771,-0.3772,-0.3754,-0.3726,-0.3716,-0.3696,-0.3689,-0.3669,-0.3658,-0.3642,-0.3607,-0.359,-0.3601,-0.3571,-0.3586,-0.3587,-0.359,-0.3591,-0.3657,-0.3585,-0.3585,-0.3585,-0.3585,0,-0.3896,-0.39,-0.385,-0.385,-0.3852,-0.3813,-0.3816,-0.3794,-0.377,-0.3763,-0.3725,-0.3719,-0.3673,-0.3662,-0.3634,-0.363,-0.3625,-0.361,-0.3603,-0.3614,-0.3616,-0.3607,-0.3604,-0.3586,-0.3586,-0.3586,-0.3585,0,-0.3964,-0.3931,-0.3927,-0.3888,-0.3878,-0.3882,-0.3848,-0.3845,-0.3819,-0.3812,-0.3807,-0.3766,-0.3751,-0.3714,-0.3689,-0.367,-0.3673,-0.366,-0.3683,-0.3678,-0.3695,-0.3694,-0.3758,-0.3764,-0.3689,-0.369,-0.3691,0,-0.3998,-0.4,-0.3962,-0.3955,-0.3939,-0.3929,-0.3919,-0.3879,-0.387,-0.3839,-0.384,-0.3821,-0.3805,-0.3782,-0.3749,-0.373,-0.3715,-0.3739,-0.3712,-0.3722,-0.3715,-0.3715,-0.3715,-0.3745,-0.3746,-0.3747,-0.3747,0,-0.4062,-0.4045,-0.4032,-0.4013,-0.4002,-0.3984,-0.3965,-0.3961,-0.3917,-0.3907,-0.3892,-0.3879,-0.3854,-0.3836,-0.3811,-0.3791,-0.3761,-0.3756,-0.3758,-0.377,-0.3783,-0.3776,-0.3699,-0.3755,-0.3754,-0.3754,-0.3753,-0.3753,-0.4113,-0.4113,-0.4086,-0.4072,-0.4053,-0.4036,-0.4031,-0.4005,-0.3992,-0.3969,-0.3946,-0.3932,-0.3904,-0.3867,-0.385,-0.3837,-0.3822,-0.3826,-0.3827,-0.3828,-0.3833,-0.3785,-0.3833,-0.3832,-0.3832,-0.3832,-0.3832,0,-0.4175,-0.4155,-0.4143,-0.4117,-0.4106,-0.408,-0.4057,-0.4049,-0.4038,-0.4015,-0.3999,-0.3981,-0.3963,-0.3929,-0.3907,-0.3904,-0.389,-0.39,-0.39,-0.3895,-0.3848,-0.3848,-0.3912,-0.3912,-0.3912,-0.3912,-0.3912,-0.3912,-0.4206,-0.4204,-0.4184,-0.4171,-0.4151,-0.4138,-0.4127,-0.411,-0.4091,-0.4073,-0.4058,-0.4036,-0.4008,-0.3984,-0.3966,-0.3956,-0.395,-0.3964,-0.395,-0.3907,-0.3899,-0.3892,-0.3891,-0.3963,-0.3963,-0.3998,-0.3999,-0.3999]},{"header":{"parameterUnit":"m.s-1","parameterCategory":1,"la1":30.2991,"la2":30.254,"lo1":-89.0895,"lo2":-89.0444,"dy":0.0017,"dx":0.0017,"nx":28,"ny":28,"refTime":"2025-07-31T21:00:00:Z","depth":0,"parameterNumber":3,"parameterNumberName":"V-component_of_WINDS"},"data":[0,0,0,0,0,0,0,0,0,0,0,0,0,0,0,0,0,0,0,0,0,0,0,0,0,0,0,0,0,0,0,0,0,0,0,0,0,0,0,0,0,0,0,0,0,0,0,0,0,0,0,0,0,0,0,0,0,0,-0.0105,-0.0105,0,-0.0117,-0.0117,-0.0117,-0.0126,-0.0126,-0.0126,-0.0126,-0.0138,-0.0138,-0.0138,0,0,0,0,0,0,0,0,0,0,0,0,0,-0.0091,-0.0091,-0.0105,-0.0105,-0.0105,-0.0117,-0.0117,-0.0117,-0.0125,-0.0126,-0.0126,-0.0126,-0.0138,-0.0138,-0.0138,0,0,0,0,0,0,0,0,0,0,0,0,0,-0.01,-0.0091,-0.0105,-0.0111,-0.0112,-0.0117,-0.0117,-0.0117,-0.0125,-0.0126,-0.0126,-0.0126,-0.0137,-0.0138,-0.0138,-0.0139,0,0,-0.0139,-0.014,0,0,0,0,0,0,0,0,-0.0099,-0.01,-0.011,-0.0111,-0.0111,-0.012,-0.0117,-0.0125,-0.0125,-0.012,-0.0126,-0.0126,-0.0132,-0.0133,-0.0135,-0.0139,-0.014,-0.0139,-0.014,-0.014,-0.014,0,0,0,0,0,0,0,-0.0098,-0.01,-0.011,-0.011,-0.0111,-0.0113,-0.0115,-0.0118,-0.0125,-0.0121,-0.0121,-0.0123,-0.0132,-0.0134,-0.0135,-0.014,-0.0139,-0.014,-0.014,-0.014,-0.0148,-0.0148,0,0,0,0,0,0,-0.0097,-0.0099,-0.0109,-0.011,-0.0105,-0.0114,-0.0115,-0.0117,-0.0125,-0.0127,-0.0122,-0.0123,-0.0133,-0.0134,-0.0135,-0.0138,-0.014,-0.014,-0.014,-0.0148,-0.0148,-0.0148,0,0,0,0,0,0,-0.0097,-0.0098,-0.0109,-0.0105,-0.0106,-0.0114,-0.0116,-0.0117,-0.0119,-0.0127,-0.0128,-0.0123,-0.0134,-0.0135,-0.0138,-0.0139,-0.014,-0.0141,-0.0148,-0.0148,-0.0148,-0.0143,0,0,0,0,0,0,-0.0096,-0.0098,-0.0097,-0.0105,-0.0107,-0.0111,-0.0116,-0.0117,-0.012,-0.0121,-0.0128,-0.0129,-0.0134,-0.0138,-0.0139,-0.0139,-0.0141,-0.0148,-0.0148,-0.0148,-0.0143,-0.0142,-0.0142,0,0,0,0,0,-0.0096,-0.0095,-0.0097,-0.0098,-0.0106,-0.0111,-0.0112,-0.0118,-0.012,-0.012,-0.0125,-0.0129,-0.0138,-0.0138,-0.0139,-0.014,-0.0148,-0.0148,-0.0148,-0.0143,-0.0142,-0.0142,0,0,0,0,0,0,-0.0086,-0.0096,-0.0098,-0.01,-0.0105,-0.0113,-0.0113,-0.0117,-0.0121,-0.0122,-0.0128,-0.013,-0.0133,-0.0137,-0.0136,-0.0142,-0.0144,-0.0144,-0.0139,-0.0139,-0.0139,-0.0138,-0.0141,0,0,0,0,0,-0.0084,-0.0087,-0.0095,-0.0096,-0.0098,-0.0105,-0.0108,-0.0112,-0.0117,-0.0119,-0.0124,-0.0129,-0.0134,-0.0137,-0.0141,-0.0143,-0.0146,-0.0145,-0.0144,-0.0144,-0.0144,-0.0148,-0.0148,-0.0148,-0.0148,-0.0148,0,0,-0.008,-0.0086,-0.0087,-0.0094,-0.0098,-0.0102,-0.0107,-0.011,-0.0113,-0.0119,-0.0124,-0.0128,-0.0134,-0.0138,-0.014,-0.0141,-0.0145,-0.0144,-0.0143,-0.0144,-0.0148,-0.0148,-0.0148,-0.0148,-0.0148,-0.0148,0,0,-0.0075,-0.0079,-0.0081,-0.0086,-0.0093,-0.0098,-0.0098,-0.0106,-0.0109,-0.0114,-0.0119,-0.0123,-0.013,-0.0135,-0.0139,-0.0138,-0.0142,-0.0139,-0.0137,-0.0141,-0.0141,-0.0141,-0.0142,-0.0142,-0.014,-0.014,-0.014,0,-0.0069,-0.0075,-0.0081,-0.0085,-0.0089,-0.0096,-0.0098,-0.0102,-0.011,-0.0113,-0.0114,-0.0125,-0.0129,-0.0135,-0.0135,-0.0137,-0.0139,-0.0139,-0.014,-0.014,-0.014,-0.0142,-0.0142,-0.0139,-0.0139,-0.0139,-0.0139,0,-0.0068,-0.0072,-0.0073,-0.0082,-0.0085,-0.0088,-0.0096,-0.0099,-0.0104,-0.0109,-0.0114,-0.012,-0.0127,-0.0129,-0.0132,-0.0136,-0.0137,-0.0139,-0.0141,-0.014,-0.0141,-0.0142,-0.0139,-0.0139,-0.0139,-0.0139,0,0,-0.0056,-0.007,-0.0071,-0.0076,-0.0085,-0.0088,-0.0092,-0.0099,-0.0103,-0.0108,-0.0113,-0.012,-0.0123,-0.0126,-0.0131,-0.0134,-0.0135,-0.0136,-0.0137,-0.0137,-0.0141,-0.014,-0.014,-0.0138,-0.0138,-0.0138,-0.0141,0,-0.0054,-0.0062,-0.0069,-0.0074,-0.0079,-0.0087,-0.0091,-0.0097,-0.0103,-0.0108,-0.0114,-0.0119,-0.0122,-0.0125,-0.0128,-0.0134,-0.0136,-0.0134,-0.0143,-0.0143,-0.0142,-0.0141,-0.0139,-0.0141,-0.0142,-0.0142,-0.0142,0,-0.0051,-0.0058,-0.0064,-0.0075,-0.0077,-0.0081,-0.0089,-0.0094,-0.0102,-0.0106,-0.0111,-0.0117,-0.0122,-0.0124,-0.0133,-0.0131,-0.0135,-0.0139,-0.014,-0.0141,-0.0143,-0.0143,-0.0142,-0.0143,-0.0142,-0.0142,-0.0142,0,-0.0044,-0.0054,-0.006,-0.0064,-0.0076,-0.0079,-0.0084,-0.0092,-0.0097,-0.0104,-0.0108,-0.0115,-0.0119,-0.0125,-0.0133,-0.0133,-0.0142,-0.0143,-0.0146,-0.0146,-0.0147,-0.0147,-0.0148,-0.0149,-0.0149,-0.0149,-0.0149,0,-0.0041,-0.0045,-0.0057,-0.0061,-0.0066,-0.0075,-0.008,-0.0086,-0.0093,-0.0099,-0.0106,-0.0111,-0.012,-0.0126,-0.0132,-0.014,-0.0141,-0.0145,-0.0147,-0.0145,-0.0145,-0.0148,-0.0148,-0.0149,-0.0149,-0.0149,-0.0149,0,-0.0033,-0.0042,-0.0049,-0.0061,-0.0064,-0.0067,-0.0078,-0.0082,-0.0088,-0.0095,-0.0098,-0.0108,-0.0116,-0.0124,-0.0135,-0.0139,-0.0146,-0.0148,-0.0144,-0.0145,-0.0147,-0.0147,-0.015,-0.0152,-0.0151,-0.0151,-0.0151,0,-0.0031,-0.0034,-0.0047,-0.0052,-0.0057,-0.0064,-0.0069,-0.0078,-0.0083,-0.0094,-0.0098,-0.0106,-0.0114,-0.0127,-0.0135,-0.0144,-0.0146,-0.0147,-0.0148,-0.0146,-0.0148,-0.0148,-0.0149,-0.0147,-0.0147,-0.0147,-0.0147,0,-0.0027,-0.0031,-0.0038,-0.0048,-0.0054,-0.0062,-0.007,-0.0073,-0.0084,-0.0089,-0.0098,-0.0104,-0.0116,-0.0125,-0.0135,-0.0141,-0.0146,-0.0147,-0.0148,-0.0146,-0.0144,-0.0147,-0.0144,-0.0146,-0.0146,-0.0146,-0.0146,-0.0146,-0.0022,-0.0027,-0.0037,-0.0046,-0.0053,-0.0061,-0.0066,-0.0074,-0.0081,-0.0092,-0.0097,-0.0106,-0.0116,-0.013,-0.0136,-0.0144,-0.0145,-0.0146,-0.0147,-0.0147,-0.0148,-0.0143,-0.0145,-0.0146,-0.0146,-0.0146,-0.0146,0,-0.002,-0.0027,-0.0035,-0.0047,-0.0054,-0.0058,-0.0068,-0.0074,-0.0082,-0.0091,-0.0099,-0.011,-0.0119,-0.0129,-0.0139,-0.0143,-0.0146,-0.0146,-0.0146,-0.0147,-0.0145,-0.0144,-0.0143,-0.0143,-0.0143,-0.0143,-0.0143,-0.0143,-0.0019,-0.0027,-0.0033,-0.0046,-0.0053,-0.0063,-0.0068,-0.0076,-0.0083,-0.0095,-0.0103,-0.011,-0.012,-0.0131,-0.014,-0.0143,-0.0146,-0.0146,-0.0149,-0.0147,-0.0147,-0.0147,-0.0146,-0.0146,-0.0146,-0.0151,-0.0151,-0.0151]}]]